Weather History for Drummond Island, MI

Change the Weather History Date:

Wednesday, May 15, 2013

  Actual Average (KCIU) Record (KCIU)
Temperature  
Mean Temperature 54 °F -  
Max Temperature 66 °F 63 °F 84 °F (1998)
Min Temperature 41 °F 37 °F 19 °F (1983)
Degree Days  
Heating Degree Days 12    
Growing Degree Days 4 (Base 50)    
Moisture  
Dew Point 40 °F    
Average Humidity 64    
Maximum Humidity 91    
Minimum Humidity 30    
Precipitation  
Precipitation 0.00 in - - ()
Sea Level Pressure  
Sea Level Pressure 29.61 in    
Wind  
Wind Speed 11 mph (WNW)    
Max Wind Speed 18 mph    
Max Gust Speed 26 mph    
Visibility 10 miles    
Events      
Averages and records for this station are not official NWS values.
T = Trace of Precipitation, MM = Missing Value Source: NWS Daily Summary

Daily Weather History Graph

Daily Weather History Graph

Search for Another Location

Airport:

Trip Planner

Search our weather history database for the weather conditions in past years. The results will help you decide how hot, cold, wet, or windy it might be!

Date:

Astronomy

May. 15, 2013 Rise Set
Actual Time 6:02 AM EDT 9:00 PM EDT
Civil Twilight 5:27 AM EDT 9:36 PM EDT
Nautical Twilight 4:42 AM EDT 10:21 PM EDT
Astronomical Twilight 3:48 AM EDT 11:15 PM EDT
Moon 10:40 AM EDT (5/15) 12:44 AM EDT (5/15)
Length of Visible Light 16h 08m
Length of Day
14h 58m
Waxing Crescent, 26% of the Moon is Illuminated
May 15
Waxing Crescent
May 18
First Quarter
May 25
Full
May 31
Last Quarter
Jun 8
New

Hourly Weather History & Observations

Time (EDT) Temp. Windchill Dew Point Humidity Pressure Visibility Wind Dir Wind Speed Gust Speed Precip Events Conditions
12:16 AM 43.7 °F 36.9 °F 38.3 °F 81% 29.70 in 10.0 mi SE 13.8 mph 24.2 mph N/A   Overcast
12:35 AM 43.7 °F 36.6 °F 38.3 °F 81% 29.70 in 10.0 mi SE 15.0 mph 20.7 mph N/A   Overcast
12:56 AM 43.3 °F 36.5 °F 38.3 °F 82% 29.67 in 10.0 mi SE 13.8 mph 20.7 mph N/A   Mostly Cloudy
1:15 AM 43.0 °F 36.0 °F 38.3 °F 84% 29.66 in 10.0 mi SSE 13.8 mph 21.9 mph N/A   Scattered Clouds
1:35 AM 43.5 °F 36.4 °F 38.7 °F 83% 29.65 in 10.0 mi SE 15.0 mph 19.6 mph N/A   Mostly Cloudy
1:56 AM 43.3 °F 36.1 °F 38.7 °F 84% 29.63 in 10.0 mi SE 15.0 mph 21.9 mph N/A   Mostly Cloudy
2:15 AM 43.5 °F 36.1 °F 38.8 °F 84% 29.62 in 10.0 mi SE 16.1 mph 23.0 mph N/A   Mostly Cloudy
2:35 AM 43.2 °F 36.6 °F 38.8 °F 85% 29.59 in 10.0 mi SE 12.7 mph 21.9 mph N/A   Scattered Clouds
2:56 AM 42.8 °F 36.2 °F 39.0 °F 86% 29.57 in 10.0 mi SE 12.7 mph 18.4 mph N/A   Scattered Clouds
3:15 AM 42.8 °F 35.4 °F 38.8 °F 86% 29.54 in 10.0 mi ESE 15.0 mph 25.3 mph N/A   Scattered Clouds
3:36 AM 42.8 °F 35.8 °F 39.0 °F 86% 29.51 in 10.0 mi SE 13.8 mph 23.0 mph N/A   Scattered Clouds
3:56 AM 43.0 °F 35.1 °F 39.2 °F 86% 29.50 in 10.0 mi SE 17.3 mph 24.2 mph N/A   Clear
4:15 AM 42.4 °F 34.1 °F 38.8 °F 87% 29.48 in 10.0 mi SE 18.4 mph 24.2 mph N/A   Clear
4:36 AM 42.3 °F 35.1 °F 38.8 °F 88% 29.48 in 10.0 mi SE 13.8 mph 24.2 mph N/A   Clear
4:56 AM 41.9 °F 36.9 °F 38.7 °F 88% 29.49 in 10.0 mi SSE 8.1 mph 20.7 mph N/A   Clear
5:15 AM 41.9 °F 35.4 °F 38.7 °F 88% 29.48 in 10.0 mi SE 11.5 mph 17.3 mph N/A   Clear
5:36 AM 41.4 °F 35.2 °F 38.5 °F 89% 29.48 in 10.0 mi SE 10.4 mph - N/A   Clear
5:56 AM 41.4 °F 35.2 °F 38.7 °F 90% 29.48 in 7.0 mi SE 10.4 mph 18.4 mph N/A   Clear
6:15 AM 41.4 °F 36.2 °F 38.7 °F 90% 29.48 in 7.0 mi SE 8.1 mph 16.1 mph N/A   Clear
6:36 AM 41.0 °F 36.4 °F 38.7 °F 91% 29.48 in 7.0 mi SSE 6.9 mph - N/A   Clear
6:55 AM 41.4 °F 36.8 °F 38.8 °F 91% 29.49 in 7.0 mi SE 6.9 mph - N/A   Clear
7:15 AM 42.1 °F 40.2 °F 39.2 °F 90% 29.49 in 7.0 mi SE 3.5 mph - N/A   Clear
7:36 AM 42.8 °F 41.1 °F 39.4 °F 88% 29.50 in 7.0 mi SE 3.5 mph - N/A   Clear
7:55 AM 44.2 °F - 40.3 °F 86% 29.50 in 7.0 mi Calm Calm - N/A   Clear
8:16 AM 45.5 °F - 40.6 °F 83% 29.51 in 10.0 mi Calm Calm - N/A   Clear
8:36 AM 47.3 °F - 41.4 °F 80% 29.52 in 10.0 mi WNW 3.5 mph - N/A   Clear
9:16 AM 48.0 °F - 41.5 °F 78% 29.54 in 10.0 mi West 8.1 mph - N/A   Clear
9:36 AM 49.3 °F - 41.9 °F 76% 29.55 in 10.0 mi WNW 8.1 mph 16.1 mph N/A   Clear
9:55 AM 52.3 °F - 42.8 °F 70% 29.54 in 10.0 mi NW 11.5 mph 16.1 mph N/A   Clear
10:16 AM 53.4 °F - 43.0 °F 68% 29.55 in 10.0 mi WNW 11.5 mph 26.5 mph N/A   Clear
10:36 AM 53.1 °F - 43.2 °F 69% 29.56 in 10.0 mi WNW 13.8 mph 23.0 mph N/A   Scattered Clouds
10:55 AM 52.9 °F - 43.3 °F 70% 29.56 in 10.0 mi WNW 18.4 mph 26.5 mph N/A   Clear
11:16 AM 53.2 °F - 43.7 °F 70% 29.58 in 10.0 mi NW 9.2 mph 20.7 mph N/A   Clear
11:35 AM 55.6 °F - 44.2 °F 66% 29.59 in 10.0 mi NW 16.1 mph 21.9 mph N/A   Clear
11:55 AM 55.8 °F - 44.6 °F 66% 29.61 in 10.0 mi WNW 9.2 mph 24.2 mph N/A   Clear
12:16 PM 56.7 °F - 44.8 °F 64% 29.62 in 10.0 mi WNW 12.7 mph 25.3 mph N/A   Clear
12:35 PM 55.9 °F - 44.6 °F 66% 29.63 in 10.0 mi WNW 15.0 mph 23.0 mph N/A   Mostly Cloudy
12:56 PM 55.4 °F - 45.1 °F 68% 29.64 in 10.0 mi WNW 12.7 mph 21.9 mph N/A   Overcast
1:16 PM 57.7 °F - 46.2 °F 65% 29.64 in 10.0 mi WNW 11.5 mph 24.2 mph N/A   Mostly Cloudy
1:35 PM 59.4 °F - 46.4 °F 62% 29.64 in 10.0 mi NW 12.7 mph 24.2 mph N/A   Clear
1:56 PM 61.5 °F - 46.8 °F 58% 29.65 in 10.0 mi NW 6.9 mph 23.0 mph N/A   Clear
2:16 PM 62.4 °F - 45.7 °F 54% 29.65 in 10.0 mi WNW 9.2 mph 20.7 mph N/A   Clear
2:35 PM 65.7 °F - 44.8 °F 47% 29.64 in 10.0 mi NNW 12.7 mph 19.6 mph N/A   Clear
2:56 PM 64.8 °F - 43.2 °F 45% 29.64 in 10.0 mi NW 12.7 mph 20.7 mph N/A   Clear
3:15 PM 65.3 °F - 43.2 °F 45% 29.64 in 10.0 mi NW 11.5 mph 23.0 mph N/A   Clear
3:35 PM 64.6 °F - 41.9 °F 44% 29.65 in 10.0 mi NNW 11.5 mph 19.6 mph N/A   Clear
3:56 PM 65.3 °F - 40.1 °F 40% 29.65 in 10.0 mi NNW 11.5 mph 20.7 mph N/A   Clear
4:15 PM 64.8 °F - 39.4 °F 39% 29.65 in 10.0 mi NNW 11.5 mph 20.7 mph N/A   Clear
4:36 PM 65.3 °F - 40.1 °F 40% 29.65 in 10.0 mi NNW 6.9 mph 18.4 mph N/A   Clear
4:56 PM 65.7 °F - 40.3 °F 39% 29.65 in 10.0 mi NW 9.2 mph 19.6 mph N/A   Clear
5:15 PM 65.1 °F - 40.3 °F 40% 29.65 in 10.0 mi NW 9.2 mph 18.4 mph N/A   Clear
5:36 PM 65.7 °F - 39.0 °F 38% 29.66 in 10.0 mi NW 10.4 mph 20.7 mph N/A   Clear
5:56 PM 65.3 °F - 38.3 °F 37% 29.67 in 10.0 mi NW 8.1 mph 20.7 mph N/A   Clear
6:15 PM 65.1 °F - 37.2 °F 36% 29.67 in 10.0 mi NW 9.2 mph 20.7 mph N/A   Clear
6:36 PM 65.7 °F - 35.4 °F 33% 29.67 in 10.0 mi NW 10.4 mph 23.0 mph N/A   Clear
6:55 PM 66.0 °F - 34.0 °F 30% 29.67 in 10.0 mi NW 11.5 mph 23.0 mph N/A   Clear
7:16 PM 65.7 °F - 35.1 °F 32% 29.68 in 10.0 mi WNW 9.2 mph 16.1 mph N/A   Clear
7:35 PM 65.7 °F - 34.9 °F 32% 29.68 in 10.0 mi NW 5.8 mph - N/A   Clear
7:56 PM 64.4 °F - 35.4 °F 34% 29.68 in 10.0 mi WNW 11.5 mph 19.6 mph N/A   Clear
8:16 PM 63.9 °F - 35.8 °F 35% 29.69 in 10.0 mi WNW 8.1 mph - N/A   Clear
8:35 PM 62.2 °F - 36.7 °F 39% 29.69 in 10.0 mi Calm Calm - N/A   Clear
8:56 PM 61.3 °F - 36.7 °F 40% 29.69 in 10.0 mi WNW 3.5 mph - N/A   Clear
9:16 PM 58.5 °F - 38.3 °F 47% 29.70 in 10.0 mi Calm Calm - N/A   Clear
9:35 PM 58.8 °F - 38.3 °F 47% 29.70 in 10.0 mi Calm Calm - N/A   Clear
9:56 PM 61.2 °F - 37.6 °F 42% 29.70 in 10.0 mi Calm Calm - N/A   Clear
10:15 PM 60.8 °F - 37.8 °F 42% 29.70 in 10.0 mi West 3.5 mph - N/A   Clear
10:35 PM 60.4 °F - 37.9 °F 43% 29.70 in 10.0 mi SW 3.5 mph - N/A   Clear
10:56 PM 55.6 °F - 39.2 °F 54% 29.71 in 10.0 mi Calm Calm - N/A   Clear
11:15 PM 54.5 °F - 39.2 °F 56% 29.71 in 10.0 mi Calm Calm - N/A   Clear
11:36 PM 49.6 °F - 40.3 °F 70% 29.71 in 10.0 mi WSW 3.5 mph - N/A   Clear
11:56 PM 47.1 °F - 39.6 °F 75% 29.71 in 10.0 mi WSW 3.5 mph - N/A   Clear